Theta_e
292 285 283 288 289 291 290 286 285 288 290 289 289 291 292 292 295 316 318 320 321 322 324 323 327 328 327 327 328 327 327 328 326 326 325 325 327 327 329 330 330 332 335 335
287 284 290 291 291 290 289 287 286 288 291 290 290 287 290 294 292 308 318 319 320 322 323 319 325 326 326 325 327 326 326 327 327 328 328 328 327 327 331 330 330 332 334 333
285 288 293 291 289 287 288 287 287 287 288 288 285 285 288 292 295 296 316 321 322 321 321 317 323 325 325 323 325 326 325 327 328 327 326 326 324 325 327 330 330 331 332 331
288 292 291 289 287 289 285 292 291 289 285 280 286 281 286 289 292 296 301 318 321 322 323 318 321 322 323 323 326 326 326 327 328 326 326 327 326 324 327 330 331 330 332 330
285 288 289 287 288 291 288 293 290 289 285 283 285 280 284 287 289 294 297 313 319 322 323 319 319 321 323 324 324 326 326 327 328 326 326 326 326 325 330 330 328 330 329 330
285 290 290 292 293 293 293 291 289 287 285 279 285 282 285 285 291 294 298 299 317 320 322 323 320 321 322 324 324 326 326 326 327 327 324 325 326 325 329 329 329 328 328 325
280 286 291 293 289 292 288 287 279 278 277 277 287 282 286 290 291 296 297 294 312 319 322 322 320 319 321 322 323 325 326 325 326 327 325 325 326 326 328 329 329 326 324 320
274 275 284 289 287 285 285 286 280 275 275 279 287 280 286 292 304 305 305 303 304 317 321 322 321 319 321 322 323 324 325 325 326 327 324 324 327 328 329 329 329 327 325 321
275 274 284 288 290 290 288 284 287 283 283 279 281 284 290 302 301 304 309 311 302 314 320 321 321 320 322 323 323 323 325 326 325 326 327 325 328 328 327 327 326 326 324 321
278 272 284 284 290 290 286 287 282 285 277 276 279 280 283 295 297 303 305 309 310 315 317 319 320 320 321 323 323 323 326 326 326 325 326 327 328 328 327 326 324 323 320 320
280 278 277 286 283 281 282 279 282 283 284 279 276 279 293 294 299 301 303 305 308 309 312 314 314 318 320 323 322 323 325 325 326 326 326 328 327 327 327 325 323 322 320 318
279 278 273 277 284 285 284 279 280 276 276 279 279 279 296 296 297 302 304 303 304 306 309 313 315 316 316 319 323 323 321 320 322 326 326 325 323 323 323 323 322 320 319 318
280 274 270 273 279 281 278 280 281 282 282 277 275 280 296 296 296 298 297 298 299 302 303 308 312 316 315 317 316 316 316 317 318 322 323 322 321 322 320 318 317 318 318 317
282 274 270 268 272 277 275 279 280 280 277 277 278 282 292 293 293 295 295 296 297 298 300 301 305 311 314 315 315 314 315 315 316 318 321 318 318 318 318 318 317 317 317 315
277 272 274 276 277 277 278 278 279 278 281 277 280 284 291 291 294 294 295 295 294 294 293 295 298 305 310 313 314 315 314 315 318 320 319 318 316 317 316 317 315 314 313 312
278 272 274 272 277 277 275 278 282 281 281 282 283 286 287 292 294 292 291 291 290 290 291 293 294 297 305 312 312 313 313 313 313 311 310 312 315 317 316 313 311 310 311 312
275 273 272 270 275 275 270 277 279 282 283 284 280 283 288 288 288 288 287 288 288 289 289 291 292 294 300 305 311 311 311 311 310 309 308 309 308 308 309 310 309 309 310 309
275 274 274 270 273 256 275 282 284 282 284 286 286 286 286 287 289 289 289 288 288 289 289 290 291 292 297 301 308 311 310 309 308 307 307 307 306 306 307 308 307 307 306 307
281 276 272 269 269 273 275 279 279 279 279 286 284 287 286 288 289 287 290 290 289 289 290 290 292 292 295 297 298 298 299 303 308 306 305 305 305 304 304 303 304 305 304 304
279 279 275 272 267 261 273 279 282 284 275 282 284 286 285 286 281 284 291 291 291 291 291 290 291 291 291 292 294 293 293 295 297 306 304 303 302 303 302 302 302 302 303 303
273 273 270 271 270 272 277 280 283 273 273 282 283 288 287 285 287 290 291 291 293 292 291 291 290 289 289 290 291 289 290 290 294 302 305 304 301 299 301 301 301 301 301 301
270 269 267 270 267 267 280 280 274 278 282 282 283 284 286 285 286 288 289 289 291 292 292 292 289 287 288 290 289 288 288 291 293 296 303 303 301 300 299 297 299 300 300 299
270 272 270 271 271 278 282 280 282 283 281 282 282 283 284 286 287 288 288 289 289 290 292 293 291 288 287 288 288 288 289 291 292 291 296 300 302 300 297 295 295 296 298 298
274 277 273 273 275 276 280 281 282 282 282 283 284 283 284 284 285 286 288 289 290 290 291 291 291 290 288 288 289 288 290 290 291 290 291 297 299 297 298 295 294 293 293 293
273 274 273 273 275 276 279 280 280 280 283 283 284 284 283 283 284 286 286 286 285 285 286 288 288 288 289 290 289 288 290 290 288 288 289 291 295 295 295 294 293 293 293 293
274 272 271 269 275 275 275 279 281 280 280 282 282 282 284 284 284 286 286 287 285 284 285 285 286 287 288 289 289 290 290 290 288 287 287 287 289 289 291 291 291 291 292 291
Wind_Speed
3 3 13 23 20 26 18 12 15 15 7 7 14 18 18 10 10 20 19 21 22 24 21 22 25 25 23 22 23 22 22 18 15 11 13 11 12 8 9 8 9 9 8 11
3 14 22 17 15 19 19 22 22 9 8 12 17 14 12 12 9 20 21 19 22 22 19 16 24 25 25 24 24 21 23 18 16 12 11 10 8 5 10 7 8 6 8 9
16 23 18 14 16 17 21 22 22 15 1 6 1 10 11 12 14 9 21 26 20 24 22 20 24 26 25 25 25 24 23 20 17 15 9 5 5 3 4 9 8 7 10 9
16 24 20 20 19 19 23 23 19 11 5 9 9 13 7 8 13 17 16 23 23 23 22 25 27 26 27 25 23 24 22 20 15 14 13 16 12 9 4 8 7 6 10 9
10 21 16 19 20 21 24 16 10 13 7 7 12 2 9 3 12 20 19 23 24 24 24 24 26 29 29 26 24 24 23 22 19 16 13 12 12 7 6 6 9 9 7 10
15 14 6 6 15 19 17 8 6 2 7 11 22 8 15 6 15 23 18 16 24 24 25 26 28 24 23 22 22 20 22 21 20 18 15 13 14 9 11 12 11 9 8 6
22 13 12 5 12 9 8 13 7 7 5 10 13 8 14 9 11 18 20 14 23 22 23 24 24 20 18 22 21 18 21 20 19 20 17 14 10 12 16 16 13 12 7 4
12 15 20 19 13 9 8 11 6 8 7 13 13 6 10 10 1 4 5 2 15 24 23 25 22 19 22 24 23 21 22 19 18 18 15 10 8 7 8 11 9 10 10 9
11 9 26 22 18 5 6 9 5 8 4 1 4 6 5 4 6 8 11 10 2 22 24 24 21 19 22 21 21 21 20 18 16 17 15 14 12 10 11 10 11 10 10 9
10 12 14 24 19 18 14 8 7 1 11 14 1 4 7 6 5 8 10 11 10 9 6 10 14 16 14 17 16 14 17 21 21 17 13 13 12 10 9 9 11 11 10 12
7 4 17 8 12 17 14 13 8 5 4 10 6 6 8 4 7 12 11 9 11 11 10 9 6 8 10 12 12 11 14 11 12 15 15 15 11 13 12 12 11 11 11 12
6 5 14 18 9 14 10 16 13 5 9 4 3 5 16 8 12 14 15 13 13 13 11 9 7 6 8 6 10 13 11 10 7 6 5 6 11 10 12 11 11 12 14 13
11 5 11 11 2 10 11 17 15 13 5 3 3 4 14 14 14 13 15 13 13 12 12 11 11 6 7 6 6 6 5 6 6 5 6 4 2 8 5 7 10 11 12 12
10 1 3 4 10 12 13 16 13 11 3 9 2 11 14 17 10 12 13 12 13 12 14 13 11 9 8 9 7 7 5 1 3 5 11 12 8 9 9 6 6 8 9 11
4 7 10 7 17 14 16 14 13 9 8 5 10 11 14 16 4 11 13 14 15 16 17 16 15 9 8 9 8 9 8 6 3 8 3 7 12 8 7 5 8 5 7 5
4 5 16 10 11 12 15 16 8 5 8 8 10 7 14 15 11 13 13 14 15 15 16 17 17 15 9 8 8 10 8 9 7 10 8 6 5 6 12 11 8 6 10 12
5 2 3 10 7 11 7 10 8 2 3 5 6 6 8 14 14 12 12 14 13 13 14 16 16 13 11 8 9 10 9 8 9 8 9 7 7 8 8 10 10 9 9 8
4 4 3 8 7 3 4 20 3 6 2 4 5 7 8 10 13 9 10 13 12 12 12 13 13 13 12 12 9 10 8 7 9 9 7 7 6 7 5 6 6 6 7 8
3 2 4 3 5 8 11 16 14 3 4 14 9 3 4 10 12 12 10 8 9 8 6 7 9 9 10 13 12 14 13 9 6 7 6 6 6 6 5 5 6 4 6 6
10 4 2 5 3 3 9 18 20 8 3 25 21 5 2 1 2 5 17 9 13 9 6 6 7 8 9 7 10 12 12 13 8 3 4 4 5 6 5 5 5 3 5 5
11 6 4 5 4 5 15 17 16 3 10 17 21 3 1 1 4 7 14 10 10 12 13 7 7 7 6 6 9 9 9 10 7 5 5 5 5 6 6 5 3 3 4 4
7 6 2 3 3 1 15 8 7 3 5 10 17 18 6 6 9 9 12 11 13 13 13 13 9 7 7 6 7 7 7 4 7 8 6 6 5 5 4 5 4 4 4 4
2 2 5 6 4 9 9 4 4 5 4 3 9 12 15 14 6 5 3 9 3 1 10 8 9 8 7 7 6 7 5 6 6 8 7 5 5 5 5 5 4 4 4 3
8 9 5 9 6 11 5 6 2 5 4 3 5 7 15 6 10 9 7 7 8 4 7 6 5 0 6 6 7 7 7 6 6 7 7 6 5 5 4 3 3 3 2 3
8 7 4 7 8 6 4 5 7 9 6 7 7 1 2 15 10 4 9 10 6 4 3 3 3 3 3 5 5 6 7 7 6 6 5 5 4 4 4 4 3 3 2 3
2 4 4 5 7 7 7 7 10 11 11 8 8 8 5 5 10 8 8 11 9 4 1 2 4 4 1 2 3 2 4 5 5 5 4 4 2 1 1 2 2 4 2 5
Wind_Direction
322 281 241 243 237 250 278 257 242 243 211 188 230 244 253 250 163 183 192 189 187 185 184 173 174 172 167 171 175 179 177 178 175 175 178 176 182 182 186 183 184 183 160 157
242 237 248 261 269 263 246 253 254 264 208 197 241 253 248 249 221 180 183 200 191 187 180 170 174 174 175 171 180 180 181 181 177 170 174 174 167 175 182 190 168 167 157 154
247 247 251 264 272 250 240 235 239 235 194 267 240 271 248 256 241 173 192 189 193 190 180 171 176 177 178 178 180 183 184 178 183 172 155 131 100 86 149 178 169 170 152 156
250 256 236 247 244 246 245 233 236 231 164 245 156 258 253 237 235 232 184 189 193 195 192 172 179 179 180 183 178 180 183 180 180 177 177 176 183 174 173 179 169 163 154 155
278 281 252 245 234 236 249 230 223 213 210 253 255 296 261 281 248 222 200 193 194 191 189 185 179 181 184 179 180 181 180 180 174 178 186 185 180 165 151 163 160 168 159 158
286 277 222 244 270 227 257 241 252 181 217 240 249 179 263 234 239 224 211 187 192 193 192 191 190 176 181 180 180 178 179 180 175 178 177 189 187 169 164 167 170 170 168 161
316 318 310 26 256 264 220 205 229 230 234 233 237 184 232 249 241 228 197 174 195 192 190 194 190 175 172 175 177 175 180 180 179 185 180 179 194 180 178 172 171 165 164 151
331 330 14 346 352 292 233 198 184 201 208 241 241 223 243 234 5 357 45 310 192 190 191 191 186 166 170 174 176 176 176 177 179 182 185 162 169 187 181 184 174 170 170 166
333 294 313 335 328 302 321 196 221 199 222 196 195 227 278 133 60 42 42 43 234 194 185 186 177 163 168 172 173 172 174 176 179 187 186 182 170 178 184 176 173 173 166 165
329 302 328 327 358 23 37 8 31 18 211 233 272 219 212 178 113 71 54 60 39 18 151 152 162 145 156 173 168 169 177 176 174 186 188 185 181 156 167 162 176 168 161 163
332 317 317 339 20 16 13 22 350 285 299 201 155 260 342 73 90 101 79 61 56 49 49 61 81 132 137 143 137 154 167 162 167 187 192 188 172 164 165 170 169 170 164 165
326 315 333 326 84 51 48 20 13 13 345 328 260 65 10 56 104 97 86 69 54 53 46 60 45 104 119 137 146 140 138 139 124 119 143 235 147 155 162 167 175 170 170 170
346 345 336 348 309 359 17 350 349 324 236 9 334 24 20 28 44 55 79 68 60 44 44 51 52 78 89 96 84 102 129 146 132 103 116 139 176 140 153 172 163 174 170 170
355 41 118 294 280 294 306 325 343 331 325 325 67 342 30 12 37 65 66 65 69 55 41 37 36 46 67 94 99 99 84 327 132 147 129 123 107 86 79 355 297 176 174 165
32 301 292 300 305 308 327 327 310 303 296 276 331 343 20 353 54 84 78 65 58 56 46 35 32 34 38 69 77 80 73 51 82 192 190 176 149 141 106 192 175 139 129 183
307 283 312 297 288 316 314 306 345 288 254 274 327 44 352 18 49 74 77 75 63 53 47 41 33 29 30 78 74 74 64 69 70 91 98 92 142 182 169 159 160 154 159 176
258 258 310 291 304 307 311 6 333 89 356 360 20 358 344 31 41 50 67 68 66 59 50 42 34 34 29 40 67 66 64 69 73 75 74 84 101 108 126 146 157 162 162 175
255 282 244 277 309 25 270 357 31 104 122 152 292 23 17 9 340 53 53 72 67 67 60 48 38 28 34 55 70 98 93 87 78 77 79 78 84 96 120 138 148 149 153 169
192 285 295 250 256 270 19 351 338 16 42 22 328 93 16 18 329 34 27 47 69 54 56 67 58 38 37 47 48 59 55 51 77 94 94 99 104 106 118 122 131 136 138 131
331 273 159 292 246 213 349 330 329 271 85 356 335 139 85 323 132 353 342 19 30 43 46 52 46 51 52 33 52 49 46 44 30 88 74 88 101 108 93 93 97 95 117 131
313 310 278 266 252 117 2 5 323 11 354 345 343 345 335 245 39 23 347 18 33 24 30 20 54 55 45 45 61 52 49 43 7 47 103 72 61 77 96 103 94 100 104 119
310 304 9 351 318 245 7 24 34 270 325 352 352 0 33 51 12 20 358 16 12 359 1 12 21 24 28 38 63 52 55 62 58 40 58 89 85 78 74 84 79 84 105 110
352 19 322 359 350 21 60 116 187 246 293 45 21 348 346 355 322 289 272 333 327 113 313 338 355 6 20 31 38 48 356 38 61 72 61 85 89 86 70 80 88 88 86 97
325 313 300 292 321 336 46 7 338 326 299 314 91 43 321 331 348 326 285 262 251 230 195 205 278 316 8 26 35 28 19 19 52 60 72 72 106 119 114 86 63 73 74 99
260 311 288 293 301 327 23 316 306 308 293 298 301 277 45 315 319 296 314 319 258 230 1 359 237 217 144 83 46 43 30 23 31 41 51 81 115 117 140 146 159 147 192 159
215 263 309 296 268 244 258 263 279 286 292 285 293 300 267 223 299 312 315 311 310 242 84 15 0 330 326 131 129 73 46 48 22 16 20 13 26 39 74 66 65 72 88 192